| time (UTC) | temp F | wind direction | speed MPH | gust MPH | rain 1hr in | rain 24hr in | rain mn in | humidity % | barometer mb |
| 20260509133335 | 48 | 345 | 2.0 | 4.0 | 0.00 | 0.00 | 0.00 | 71 | 1015.2 |
| 20260509132318 | 47 | 272 | 0.0 | 2.0 | 0.00 | 0.00 | 0.00 | 70 | 1015.3 |
| 20260509131323 | 47 | 272 | 1.0 | 3.0 | 0.00 | 0.00 | 0.00 | 70 | 1015.3 |
| 20260509130322 | 48 | 273 | 1.0 | 3.0 | 0.00 | 0.00 | 0.00 | 70 | 1015.3 |
| 20260509125338 | 48 | 273 | 1.0 | 6.0 | 0.00 | 0.00 | 0.00 | 70 | 1015.2 |
| 20260509124325 | 48 | 273 | 3.0 | 7.0 | 0.00 | 0.00 | 0.00 | 71 | 1015.1 |
| 20260509123352 | 48 | 271 | 2.0 | 5.0 | 0.00 | 0.00 | 0.00 | 71 | 1015.1 |
| 20260509122320 | 48 | 262 | 0.0 | 3.0 | 0.00 | 0.00 | 0.00 | 71 | 1015.1 |
| 20260509121325 | 48 | 262 | 0.0 | 2.0 | 0.00 | 0.00 | 0.00 | 71 | 1015.1 |
| 20260509120327 | 48 | 262 | 1.0 | 3.0 | 0.00 | 0.00 | 0.00 | 71 | 1015.1 |
| 20260509115316 | 48 | 262 | 0.0 | 3.0 | 0.00 | 0.00 | 0.00 | 71 | 1015.2 |
| 20260509114329 | 49 | 262 | 1.0 | 4.0 | 0.00 | 0.00 | 0.00 | 71 | 1015.1 |
| 20260509113328 | 49 | 262 | 2.0 | 6.0 | 0.00 | 0.00 | 0.00 | 71 | 1015.2 |
| 20260509112321 | 49 | 265 | 2.0 | 7.0 | 0.00 | 0.00 | 0.00 | 71 | 1015.2 |
| 20260509111338 | 49 | 263 | 2.0 | 5.0 | 0.00 | 0.00 | 0.00 | 71 | 1015.3 |
| 20260509110316 | 49 | 267 | 1.0 | 3.0 | 0.00 | 0.00 | 0.00 | 71 | 1015.3 |
| 20260509105319 | 49 | 271 | 0.0 | 3.0 | 0.00 | 0.00 | 0.00 | 71 | 1015.3 |
| 20260509104344 | 49 | 293 | 1.0 | 3.0 | 0.00 | 0.00 | 0.00 | 71 | 1015.3 |
| 20260509103350 | 49 | 291 | 2.0 | 4.0 | 0.00 | 0.00 | 0.00 | 72 | 1015.3 |
| 20260509102345 | 49 | 297 | 1.0 | 3.0 | 0.00 | 0.00 | 0.00 | 72 | 1015.3 |
| 20260509101353 | 49 | 345 | 1.0 | 4.0 | 0.00 | 0.00 | 0.00 | 72 | 1015.3 |
| 20260509100336 | 49 | 263 | 1.0 | 2.0 | 0.00 | 0.00 | 0.00 | 72 | 1015.3 |
| 20260509095327 | 49 | 345 | 0.0 | 2.0 | 0.00 | 0.00 | 0.00 | 72 | 1015.3 |
| 20260509094317 | 49 | 345 | 0.0 | 2.0 | 0.00 | 0.00 | 0.00 | 72 | 1015.3 |
| 20260509093342 | 49 | 345 | 0.0 | 2.0 | 0.00 | 0.00 | 0.00 | 72 | 1015.4 |
| 20260509092314 | 50 | 345 | 1.0 | 3.0 | 0.00 | 0.00 | 0.00 | 73 | 1015.3 |
| 20260509091347 | 50 | 345 | 0.0 | 3.0 | 0.00 | 0.00 | 0.00 | 73 | 1015.4 |
| 20260509090335 | 50 | 345 | 1.0 | 4.0 | 0.00 | 0.00 | 0.00 | 73 | 1015.5 |
| 20260509085324 | 50 | 345 | 1.0 | 6.0 | 0.00 | 0.00 | 0.00 | 73 | 1015.6 |
| 20260509084331 | 50 | 345 | 4.0 | 9.0 | 0.00 | 0.00 | 0.00 | 73 | 1015.6 |
| 20260509083335 | 50 | 345 | 2.0 | 5.0 | 0.00 | 0.00 | 0.00 | 74 | 1015.6 |
| 20260509082325 | 50 | 345 | 0.0 | 2.0 | 0.00 | 0.00 | 0.00 | 74 | 1015.6 |
| 20260509081314 | 50 | 345 | 2.0 | 6.0 | 0.00 | 0.00 | 0.00 | 74 | 1015.8 |
| 20260509080344 | 50 | 345 | 1.0 | 3.0 | 0.00 | 0.00 | 0.00 | 75 | 1015.9 |
| 20260509075330 | 51 | 345 | 1.0 | 4.0 | 0.00 | 0.00 | 0.00 | 75 | 1015.9 |
| 20260509074338 | 51 | 345 | 3.0 | 5.0 | 0.00 | 0.00 | 0.00 | 76 | 1015.9 |
| 20260509073340 | 51 | 345 | 1.0 | 4.0 | 0.00 | 0.00 | 0.00 | 77 | 1016.0 |
| 20260509072327 | 51 | 345 | 2.0 | 4.0 | 0.00 | 0.00 | 0.00 | 77 | 1015.8 |
| 20260509071316 | 52 | 345 | 2.0 | 4.0 | 0.00 | 0.00 | 0.00 | 78 | 1015.9 |
| 20260509070326 | 52 | 345 | 1.0 | 5.0 | 0.00 | 0.00 | 0.00 | 78 | 1016.0 |
| 20260509065330 | 52 | 258 | 1.0 | 3.0 | 0.00 | 0.00 | 0.00 | 79 | 1016.0 |
| 20260509064329 | 52 | 256 | 1.0 | 4.0 | 0.00 | 0.00 | 0.00 | 79 | 1016.1 |
| 20260509063340 | 52 | 345 | 1.0 | 5.0 | 0.00 | 0.00 | 0.00 | 79 | 1016.0 |
| 20260509062327 | 53 | 345 | 3.0 | 5.0 | 0.00 | 0.00 | 0.00 | 78 | 1016.1 |
| 20260509061330 | 53 | 345 | 0.0 | 8.0 | 0.00 | 0.00 | 0.00 | 77 | 1016.1 |
| 20260509060311 | 53 | 345 | 6.0 | 12.0 | 0.00 | 0.00 | 0.00 | 78 | 1016.1 |
| 20260509055322 | 54 | 249 | 2.0 | 11.0 | 0.00 | 0.00 | 0.00 | 77 | 1016.1 |
| 20260509054337 | 54 | 279 | 1.0 | 12.0 | 0.00 | 0.00 | 0.00 | 77 | 1016.1 |
| 20260509053314 | 54 | 260 | 6.0 | 12.0 | 0.00 | 0.00 | 0.00 | 78 | 1016.2 |
| 20260509052333 | 53 | 325 | 5.0 | 9.0 | 0.00 | 0.00 | 0.00 | 78 | 1016.2 |
| 20260509051319 | 53 | 345 | 2.0 | 8.0 | 0.00 | 0.00 | 0.00 | 78 | 1016.2 |
| 20260509050342 | 54 | 345 | 1.0 | 6.0 | 0.00 | 0.00 | 0.00 | 78 | 1016.0 |
| 20260509045328 | 54 | 345 | 1.0 | 6.0 | 0.00 | 0.00 | 0.00 | 78 | 1016.0 |
| 20260509044316 | 54 | 345 | 3.0 | 11.0 | 0.00 | 0.00 | 0.00 | 77 | 1016.1 |
| 20260509043327 | 54 | 345 | 6.0 | 11.0 | 0.00 | 0.00 | 0.00 | 77 | 1016.0 |
| 20260509042334 | 54 | 345 | 3.0 | 12.0 | 0.00 | 0.00 | 0.00 | 77 | 1015.8 |
| 20260509041340 | 54 | 345 | 7.0 | 13.0 | 0.00 | 0.00 | 0.00 | 78 | 1015.8 |
| 20260509040323 | 54 | 345 | 6.0 | 15.0 | 0.00 | 0.00 | 0.00 | 77 | 1015.8 |
| 20260509035327 | 54 | 345 | 5.0 | 17.0 | 0.00 | 0.00 | 0.00 | 77 | 1015.8 |
| 20260509034314 | 55 | 345 | 7.0 | 16.0 | 0.00 | 0.00 | 0.00 | 76 | 1015.5 |
| 20260509033318 | 55 | 345 | 7.0 | 15.0 | 0.00 | 0.00 | 0.00 | 76 | 1015.5 |
| 20260509032329 | 55 | 260 | 5.0 | 11.0 | 0.00 | 0.00 | 0.00 | 76 | 1015.5 |
| 20260509031313 | 55 | 280 | 5.0 | 15.0 | 0.00 | 0.00 | 0.00 | 75 | 1015.5 |
| 20260509030322 | 56 | 345 | 5.0 | 17.0 | 0.00 | 0.00 | 0.00 | 74 | 1015.5 |
| 20260509025331 | 56 | 345 | 8.0 | 15.0 | 0.00 | 0.00 | 0.00 | 74 | 1015.2 |
| 20260509024340 | 56 | 345 | 7.0 | 14.0 | 0.00 | 0.00 | 0.00 | 74 | 1015.4 |
| 20260509023320 | 56 | 345 | 7.0 | 15.0 | 0.00 | 0.00 | 0.00 | 74 | 1015.3 |
| 20260509022328 | 57 | 264 | 8.0 | 14.0 | 0.00 | 0.00 | 0.00 | 73 | 1015.3 |
| 20260509021341 | 58 | 259 | 9.0 | 15.0 | 0.00 | 0.00 | 0.00 | 72 | 1015.3 |
| 20260509020316 | 58 | 244 | 7.0 | 16.0 | 0.00 | 0.00 | 0.00 | 72 | 1015.3 |
| 20260509015324 | 59 | 266 | 9.0 | 17.0 | 0.00 | 0.00 | 0.00 | 71 | 1015.4 |
| 20260509014334 | 59 | 298 | 8.0 | 14.0 | 0.00 | 0.00 | 0.00 | 71 | 1015.6 |
| 20260509013328 | 59 | 312 | 8.0 | 15.0 | 0.00 | 0.00 | 0.00 | 71 | 1015.6 |
| 20260509012321 | 60 | 260 | 9.0 | 19.0 | 0.00 | 0.00 | 0.00 | 70 | 1015.6 |
| 20260509011337 | 60 | 273 | 9.0 | 19.0 | 0.00 | 0.00 | 0.00 | 70 | 1015.7 |
| 20260509010317 | 61 | 271 | 9.0 | 16.0 | 0.00 | 0.00 | 0.00 | 69 | 1015.8 |
| 20260509005327 | 61 | 285 | 9.0 | 17.0 | 0.00 | 0.00 | 0.00 | 70 | 1015.9 |
| 20260509004342 | 61 | 298 | 6.0 | 16.0 | 0.00 | 0.00 | 0.00 | 70 | 1015.9 |
| 20260509003338 | 62 | 296 | 8.0 | 16.0 | 0.00 | 0.00 | 0.00 | 70 | 1016.0 |
| 20260509002323 | 62 | 276 | 9.0 | 21.0 | 0.00 | 0.00 | 0.00 | 70 | 1016.1 |
| 20260509001329 | 62 | 264 | 8.0 | 16.0 | 0.00 | 0.00 | 0.00 | 70 | 1016.2 |
| 20260509000319 | 61 | 322 | 10.0 | 20.0 | 0.00 | 0.00 | 0.00 | 70 | 1016.1 |
| 20260508235333 | 62 | 256 | 10.0 | 16.0 | 0.00 | 0.00 | 0.00 | 70 | 1016.2 |
| 20260508234318 | 63 | 298 | 7.0 | 19.0 | 0.00 | 0.00 | 0.00 | 69 | 1016.3 |
| 20260508233321 | 63 | 261 | 7.0 | 17.0 | 0.00 | 0.00 | 0.00 | 69 | 1016.4 |
| 20260508232338 | 63 | 270 | 9.0 | 19.0 | 0.00 | 0.00 | 0.00 | 69 | 1016.5 |
| 20260508231321 | 62 | 294 | 10.0 | 19.0 | 0.00 | 0.00 | 0.00 | 70 | 1016.7 |
| 20260508230320 | 62 | 254 | 11.0 | 19.0 | 0.00 | 0.00 | 0.00 | 70 | 1016.8 |
| 20260508225344 | 63 | 257 | 10.0 | 21.0 | 0.00 | 0.00 | 0.00 | 69 | 1016.9 |
| 20260508224338 | 63 | 255 | 7.0 | 18.0 | 0.00 | 0.00 | 0.00 | 70 | 1017.1 |
| 20260508223332 | 63 | 263 | 13.0 | 19.0 | 0.00 | 0.00 | 0.00 | 70 | 1017.1 |
| 20260508222341 | 63 | 276 | 12.0 | 18.0 | 0.00 | 0.00 | 0.00 | 69 | 1017.3 |
| 20260508221327 | 63 | 262 | 13.0 | 19.0 | 0.00 | 0.00 | 0.00 | 70 | 1017.5 |
| 20260508220358 | 63 | 250 | 10.0 | 18.0 | 0.00 | 0.00 | 0.00 | 71 | 1017.5 |
| 20260508215325 | 63 | 258 | 11.0 | 17.0 | 0.00 | 0.00 | 0.00 | 69 | 1017.5 |
| 20260508214329 | 64 | 303 | 10.0 | 17.0 | 0.00 | 0.00 | 0.00 | 70 | 1017.5 |
| 20260508213315 | 64 | 246 | 9.0 | 14.0 | 0.00 | 0.00 | 0.00 | 70 | 1017.7 |
| 20260508212330 | 64 | 258 | 13.0 | 18.0 | 0.00 | 0.00 | 0.00 | 68 | 1017.8 |
| 20260508211329 | 64 | 256 | 11.0 | 17.0 | 0.00 | 0.00 | 0.00 | 69 | 1017.8 |
| 20260508210314 | 64 | 245 | 10.0 | 17.0 | 0.00 | 0.00 | 0.00 | 69 | 1017.9 |
| 20260508205321 | 64 | 247 | 8.0 | 15.0 | 0.00 | 0.00 | 0.00 | 70 | 1018.1 |
| 20260508204328 | 63 | 248 | 10.0 | 17.0 | 0.00 | 0.00 | 0.00 | 70 | 1018.2 |
| 20260508203318 | 63 | 245 | 7.0 | 16.0 | 0.00 | 0.00 | 0.00 | 70 | 1018.3 |
| 20260508202318 | 63 | 244 | 9.0 | 16.0 | 0.00 | 0.00 | 0.00 | 70 | 1018.2 |
| 20260508201317 | 62 | 224 | 8.0 | 16.0 | 0.00 | 0.00 | 0.00 | 71 | 1018.4 |
| 20260508200324 | 62 | 254 | 10.0 | 17.0 | 0.00 | 0.00 | 0.00 | 70 | 1018.5 |
| 20260508195331 | 61 | 268 | 9.0 | 14.0 | 0.00 | 0.00 | 0.00 | 71 | 1018.5 |
| 20260508194335 | 60 | 252 | 6.0 | 13.0 | 0.00 | 0.00 | 0.00 | 71 | 1018.6 |
| 20260508193359 | 60 | 254 | 9.0 | 13.0 | 0.00 | 0.00 | 0.00 | 71 | 1018.7 |
| 20260508192328 | 59 | 254 | 8.0 | 15.0 | 0.00 | 0.00 | 0.00 | 72 | 1018.8 |
| 20260508191314 | 59 | 290 | 7.0 | 13.0 | 0.00 | 0.00 | 0.00 | 71 | 1019.0 |
| 20260508190334 | 58 | 277 | 6.0 | 14.0 | 0.00 | 0.00 | 0.00 | 73 | 1019.0 |
| 20260508185317 | 58 | 273 | 9.0 | 14.0 | 0.00 | 0.00 | 0.00 | 72 | 1019.1 |
| 20260508184326 | 58 | 266 | 7.0 | 15.0 | 0.00 | 0.00 | 0.00 | 73 | 1019.1 |
| 20260508183330 | 57 | 248 | 8.0 | 15.0 | 0.00 | 0.00 | 0.00 | 74 | 1019.2 |
| 20260508182329 | 57 | 244 | 11.0 | 16.0 | 0.00 | 0.00 | 0.00 | 73 | 1019.3 |
| 20260508181333 | 57 | 275 | 9.0 | 15.0 | 0.00 | 0.00 | 0.00 | 72 | 1019.3 |
| 20260508180336 | 58 | 252 | 8.0 | 14.0 | 0.00 | 0.00 | 0.00 | 71 | 1019.3 |
| 20260508175316 | 58 | 291 | 8.0 | 14.0 | 0.00 | 0.00 | 0.00 | 71 | 1019.3 |
| 20260508174327 | 57 | 259 | 9.0 | 15.0 | 0.00 | 0.00 | 0.00 | 71 | 1019.2 |
| 20260508173323 | 57 | 254 | 8.0 | 15.0 | 0.00 | 0.00 | 0.00 | 70 | 1019.2 |
| 20260508172337 | 56 | 261 | 9.0 | 13.0 | 0.00 | 0.00 | 0.00 | 70 | 1019.2 |
| 20260508171324 | 56 | 244 | 8.0 | 14.0 | 0.00 | 0.00 | 0.00 | 70 | 1019.1 |
| 20260508170325 | 55 | 248 | 7.0 | 11.0 | 0.00 | 0.00 | 0.00 | 69 | 1019.1 |
| 20260508165342 | 55 | 276 | 5.0 | 9.0 | 0.00 | 0.00 | 0.00 | 70 | 1019.2 |
| 20260508164331 | 55 | 284 | 6.0 | 11.0 | 0.00 | 0.00 | 0.00 | 70 | 1019.2 |
| 20260508163330 | 55 | 260 | 8.0 | 12.0 | 0.00 | 0.00 | 0.00 | 69 | 1019.1 |
| 20260508162339 | 54 | 252 | 3.0 | 8.0 | 0.00 | 0.00 | 0.00 | 68 | 1019.0 |
| 20260508161322 | 53 | 345 | 3.0 | 8.0 | 0.00 | 0.00 | 0.00 | 69 | 1019.0 |
| 20260508160346 | 53 | 345 | 3.0 | 6.0 | 0.00 | 0.00 | 0.00 | 69 | 1018.9 |
| 20260508155315 | 52 | 256 | 4.0 | 8.0 | 0.00 | 0.00 | 0.00 | 69 | 1019.0 |
| 20260508154320 | 52 | 345 | 3.0 | 8.0 | 0.00 | 0.00 | 0.00 | 70 | 1018.9 |
| 20260508153326 | 51 | 248 | 5.0 | 9.0 | 0.00 | 0.00 | 0.00 | 71 | 1019.0 |
| 20260508152336 | 51 | 345 | 4.0 | 9.0 | 0.00 | 0.00 | 0.00 | 71 | 1018.9 |
| 20260508151341 | 51 | 345 | 4.0 | 11.0 | 0.00 | 0.00 | 0.00 | 71 | 1018.9 |
| 20260508150345 | 51 | 345 | 6.0 | 10.0 | 0.00 | 0.00 | 0.00 | 71 | 1018.7 |
| 20260508145319 | 51 | 276 | 4.0 | 11.0 | 0.00 | 0.00 | 0.00 | 71 | 1018.7 |
| 20260508144331 | 51 | 289 | 4.0 | 11.0 | 0.00 | 0.00 | 0.00 | 71 | 1018.6 |
| 20260508143327 | 51 | 252 | 8.0 | 12.0 | 0.00 | 0.00 | 0.00 | 70 | 1018.7 |
| 20260508142320 | 51 | 269 | 4.0 | 9.0 | 0.00 | 0.00 | 0.00 | 70 | 1018.7 |
| 20260508141337 | 51 | 277 | 5.0 | 13.0 | 0.00 | 0.00 | 0.00 | 70 | 1018.6 |
| 20260508140319 | 50 | 304 | 5.0 | 13.0 | 0.00 | 0.00 | 0.00 | 70 | 1018.6 |
| 20260508135333 | 50 | 264 | 5.0 | 12.0 | 0.00 | 0.00 | 0.00 | 70 | 1018.4 |
| 20260508134337 | 51 | 259 | 7.0 | 12.0 | 0.00 | 0.00 | 0.00 | 70 | 1018.3 |